OBJECT P, 61907

Orbit data source: Space-Track

You're viewing an Uncataloged Satellite

Recently launched and/or uncataloged satellites may have evolving metadata. Metadata may include but not limited to: Owner, Maufacturer, Bus, Motor, and Mission.

OBJECT P, 61907 is a Chinese satellite in SSO that was launched on Mon, 11 Nov 2024 UTC via a LIJIAN-1 launch vehicle from the Jiuquan Satellite Launch Center, China (JSC). Unknown objects in Earth's orbit typically refer to objects detected orbiting the Earth but have not yet been identified or cataloged. These objects could be anything from previously untracked satellites, spent rocket stages, debris from satellite collisions, or even natural meteoroids temporarily captured by Earth's gravity.

Loading next visibility...
Identifier
61907, 2024-205P
Orbit
SSO
Country
Flag of CNCN / PRC
Related business
None
Manufacturer
Unknown
Mission
Operational Defense Technology
Bus & Motor
Unknown
Mass
Unknown
Launch date (UTC)
2024-11-11 (11 months ago)
Launch vehicle
LIJIAN-1
Launch site
Jiuquan Satellite Launch Center, China (JSC)
Object type
Unknown
Shape & HBR
Box + 2 Pan, 2.5 m
Radar Cross Section
4.795 m², Medium (>0.1 m² and < 1m²)

Expand to show TLE details & history
Last TLE update: 6 hours ago

TLE from 6 hours ago
0 OBJECT P
1 61907U 24205P   25298.88576750  .00008474  00000-0  42758-3 0  9990
2 61907  97.4401  11.0090 0014752 147.9941 212.2191 15.17269011 52801
Epoch: 2025-10-25T21:15Z
TLE epoch observation values (Epoch: 2025-10-25T21:15:30.312Z)
Latitude
-0.00011°
Longitude
17.62283°
Altitude
525.792 km
Speed
7.595 km/s
True Right ascension
00h 44m 02s
True Declination
0° 00' 00"
Sunlit
Object was in full shadow at epoch
Visualization orbit readout
Latitude
Unknown
Longitude
Unknown
Altitude
Unknown
Speed
Unknown
Apparent Right ascension
Unknown
Apparent Declination
Unknown
Sunlit
N/A
Visualization observer readout
Local Sidereal Time
22:05:10
Azimuth
Unknown
Elevation
Unknown
Doppler factor
Unknown
Orbital elements
Apogee altitude
521.233 km
Perigee altitude
500.907 km
Semi-major axis
6,889.207 km
Eccentricity
0.00148
Inclination
97.4401°
RAAN
11.009°
Arg. of periapsis
147.9941°
True anomaly
212.12911°
Mean anomaly
212.2191°
Eccentric anomaly
212.17409°
Mean motion
3.79568 °/min
Orbital period
94.84 mins
BSTAR
0.00042758
Loading maneuver chart data...
Computing Atmospheric mass density...
Loading historical data...
Loading historical data...
Loading historical data...
Loading historical data...
Loading historical data...
Loading historical data...
Loading historical data...

Documentation

Showing up to 5 results
|